Weather History for KHCD - December, 2013

Change the Weather History Date:

Monday, December 23, 2013

  Actual Average Record
Temperature  
Mean Temperature -8 °F -  
Max Temperature -2 °F - - ()
Min Temperature -16 °F - - ()
Degree Days  
Heating Degree Days 74    
Moisture  
Dew Point -15 °F    
Average Humidity 72    
Maximum Humidity 80    
Minimum Humidity 64    
Precipitation  
Precipitation 0.00 in - - ()
Sea Level Pressure  
Sea Level Pressure 30.41 in    
Wind  
Wind Speed 12 mph (WNW)    
Max Wind Speed 17 mph    
Max Gust Speed 23 mph    
Visibility 9 miles    
Events Snow    
T = Trace of Precipitation, MM = Missing Value Source: NWS Daily Summary

Daily Weather History Graph

Daily Weather History Graph

Search for Another Location

Airport or City:

Trip Planner

Search our weather history database for the weather conditions in past years. The results will help you decide how hot, cold, wet, or windy it might be!

Date:

Astronomy

Dec. 23, 2013 Rise Set
Actual Time 7:53 AM CST 4:40 PM CST
Civil Twilight 7:19 AM CST 5:14 PM CST
Nautical Twilight 6:42 AM CST 5:51 PM CST
Astronomical Twilight 6:06 AM CST 6:27 PM CST
Moon 11:06 PM CST (12/23) 11:04 AM CST (12/23)
Length of Visible Light 9h 54m
Length of Day
8h 47m
Waning Gibbous, 68% of the Moon is Illuminated
Dec 23
Waning Gibbous
Dec 25
Last Quarter
Jan 1
New
Jan 7
First Quarter
Jan 15
Full

Hourly Weather History & Observations

Time (CST) Temp. Windchill Dew Point Humidity Pressure Visibility Wind Dir Wind Speed Gust Speed Precip Events Conditions
12:13 AM -2.2 °F -19.9 °F -7.6 °F 78% 30.27 in 7.0 mi West 11.5 mph - N/A   Overcast
12:34 AM -2.7 °F -22.1 °F -8.0 °F 78% 30.27 in 7.0 mi WNW 13.8 mph 18.4 mph N/A   Overcast
12:53 AM -3.3 °F -22.8 °F -8.1 °F 80% 30.27 in 5.0 mi WNW 13.8 mph - N/A   Haze
1:13 AM -3.6 °F -24.0 °F -8.5 °F 80% 30.27 in 5.0 mi WNW 15.0 mph 20.7 mph N/A   Haze
1:34 AM -3.6 °F -23.3 °F -8.7 °F 79% 30.28 in 5.0 mi WNW 13.8 mph - N/A Snow Light Snow
1:53 AM -4.0 °F -23.0 °F -9.4 °F 78% 30.29 in 7.0 mi WNW 12.7 mph - N/A Snow Light Snow
2:14 AM -4.5 °F -23.6 °F -9.6 °F 79% 30.29 in 4.0 mi WNW 12.7 mph - N/A Snow Light Snow
2:33 AM -5.3 °F -23.7 °F -10.3 °F 79% 30.30 in 7.0 mi WNW 11.5 mph 17.3 mph N/A   Overcast
2:53 AM -6.7 °F -26.4 °F -11.4 °F 80% 30.31 in 5.0 mi West 12.7 mph - N/A   Haze
3:13 AM -7.6 °F -27.5 °F -12.8 °F 78% 30.31 in 5.0 mi WNW 12.7 mph - N/A   Haze
3:34 AM -8.1 °F -28.2 °F -13.5 °F 77% 30.31 in 10.0 mi WNW 12.7 mph - N/A   Scattered Clouds
3:53 AM -8.5 °F -27.8 °F -13.9 °F 77% 30.32 in 10.0 mi WNW 11.5 mph - N/A   Clear
4:14 AM -8.7 °F -28.0 °F -14.1 °F 77% 30.32 in 10.0 mi WNW 11.5 mph - N/A   Clear
4:33 AM -8.9 °F -27.2 °F -14.3 °F 77% 30.32 in 10.0 mi WNW 10.4 mph - N/A   Clear
4:53 AM -9.0 °F -27.4 °F -14.8 °F 76% 30.33 in 10.0 mi WNW 10.4 mph - N/A   Clear
5:14 AM -9.0 °F -25.2 °F -14.8 °F 76% 30.33 in 10.0 mi WNW 8.1 mph - N/A   Clear
5:33 AM -9.4 °F -26.8 °F -14.8 °F 77% 30.34 in 10.0 mi WNW 9.2 mph - N/A   Clear
5:53 AM -9.6 °F -27.0 °F -15.0 °F 77% 30.34 in 10.0 mi WNW 9.2 mph - N/A   Clear
6:14 AM -9.8 °F -28.3 °F -15.3 °F 76% 30.35 in 10.0 mi WNW 10.4 mph - N/A   Clear
6:33 AM -9.6 °F -29.1 °F -15.2 °F 76% 30.35 in 10.0 mi WNW 11.5 mph - N/A   Clear
6:54 AM -10.1 °F -28.8 °F -15.9 °F 76% 30.36 in 10.0 mi WNW 10.4 mph - N/A   Clear
7:13 AM -10.5 °F -29.2 °F -16.1 °F 76% 30.37 in 10.0 mi WNW 10.4 mph - N/A   Clear
7:33 AM -10.7 °F -30.5 °F -16.6 °F 75% 30.38 in 10.0 mi WNW 11.5 mph - N/A   Clear
7:54 AM -11.2 °F -30.1 °F -16.8 °F 76% 30.39 in 10.0 mi WNW 10.4 mph - N/A   Clear
8:13 AM -11.2 °F -30.1 °F -17.1 °F 75% 30.39 in 10.0 mi WNW 10.4 mph - N/A   Clear
8:33 AM -10.7 °F -29.5 °F -16.8 °F 74% 30.40 in 10.0 mi WNW 10.4 mph - N/A   Clear
8:54 AM -9.6 °F -32.4 °F -16.1 °F 73% 30.40 in 10.0 mi WNW 16.1 mph 20.7 mph N/A   Clear
9:13 AM -9.2 °F -30.4 °F -16.1 °F 72% 30.40 in 10.0 mi WNW 13.8 mph - N/A   Clear
9:34 AM -8.7 °F -30.5 °F -15.9 °F 71% 30.41 in 10.0 mi WNW 15.0 mph - N/A   Clear
9:53 AM -8.3 °F -30.7 °F -15.7 °F 70% 30.42 in 10.0 mi WNW 16.1 mph 20.7 mph N/A   Clear
10:13 AM -7.8 °F -30.7 °F -15.0 °F 71% 30.43 in 10.0 mi NW 17.3 mph - N/A   Clear
10:34 AM -7.6 °F -29.8 °F -15.0 °F 70% 30.43 in 10.0 mi NW 16.1 mph 23.0 mph N/A   Clear
10:53 AM -7.6 °F -30.5 °F -15.0 °F 70% 30.43 in 7.0 mi NW 17.3 mph 21.9 mph N/A   Mostly Cloudy
11:13 AM -7.4 °F -27.3 °F -14.8 °F 70% 30.43 in 10.0 mi WNW 12.7 mph 18.4 mph N/A   Overcast
11:33 AM -6.3 °F -28.2 °F -14.3 °F 69% 30.44 in 10.0 mi WNW 16.1 mph - N/A   Scattered Clouds
11:53 AM -5.8 °F -26.8 °F -14.1 °F 67% 30.43 in 10.0 mi WNW 15.0 mph - N/A   Clear
12:13 PM -5.4 °F -25.6 °F -13.7 °F 67% 30.43 in 10.0 mi WNW 13.8 mph 20.7 mph N/A   Clear
12:34 PM -5.3 °F -24.6 °F -13.9 °F 66% 30.43 in 10.0 mi WNW 12.7 mph 20.7 mph N/A   Clear
12:53 PM -4.9 °F -24.9 °F -13.0 °F 68% 30.43 in 10.0 mi WNW 13.8 mph - N/A   Scattered Clouds
1:13 PM -4.5 °F -25.2 °F -13.2 °F 66% 30.43 in 10.0 mi NW 15.0 mph - N/A   Scattered Clouds
1:33 PM -4.0 °F -25.2 °F -12.6 °F 66% 30.42 in 10.0 mi WNW 16.1 mph - N/A   Clear
1:53 PM -3.5 °F -23.1 °F -12.1 °F 67% 30.42 in 10.0 mi WNW 13.8 mph - N/A   Clear
2:13 PM -3.1 °F -24.0 °F -12.1 °F 65% 30.42 in 10.0 mi WNW 16.1 mph 20.7 mph N/A   Clear
2:34 PM -2.6 °F -23.3 °F -11.7 °F 65% 30.42 in 10.0 mi WNW 16.1 mph 20.7 mph N/A   Clear
2:54 PM -2.6 °F -21.9 °F -12.1 °F 64% 30.43 in 10.0 mi WNW 13.8 mph 19.6 mph N/A   Clear
3:13 PM -2.6 °F -21.9 °F -11.7 °F 65% 30.43 in 10.0 mi WNW 13.8 mph 18.4 mph N/A   Clear
3:33 PM -2.6 °F -21.1 °F -11.6 °F 65% 30.44 in 10.0 mi WNW 12.7 mph - N/A   Clear
3:54 PM -3.1 °F -17.9 °F -11.7 °F 67% 30.45 in 10.0 mi WNW 8.1 mph - N/A   Clear
4:13 PM -3.3 °F -19.3 °F -12.1 °F 66% 30.46 in 10.0 mi WNW 9.2 mph - N/A   Clear
4:33 PM -4.4 °F -20.6 °F -13.0 °F 66% 30.46 in 10.0 mi WNW 9.2 mph - N/A   Clear
4:54 PM -6.0 °F -20.1 °F -13.7 °F 69% 30.47 in 10.0 mi WNW 6.9 mph - N/A   Clear
5:13 PM -6.7 °F -24.5 °F -14.8 °F 68% 30.47 in 10.0 mi WNW 10.4 mph - N/A   Clear
5:33 PM -7.4 °F -24.4 °F -15.0 °F 70% 30.48 in 10.0 mi WNW 9.2 mph - N/A   Clear
5:54 PM -8.0 °F -23.9 °F -15.5 °F 70% 30.48 in 10.0 mi WNW 8.1 mph - N/A   Clear
6:13 PM -8.5 °F -26.8 °F -16.2 °F 69% 30.49 in 10.0 mi WNW 10.4 mph - N/A   Clear
6:34 PM -8.7 °F -25.9 °F -17.1 °F 66% 30.49 in 10.0 mi West 9.2 mph - N/A   Clear
6:53 PM -9.2 °F -27.7 °F -17.5 °F 67% 30.49 in 10.0 mi WNW 10.4 mph - N/A   Clear
7:13 PM -9.6 °F -24.5 °F -17.5 °F 68% 30.49 in 10.0 mi WNW 6.9 mph - N/A   Clear
7:34 PM -10.1 °F -26.5 °F -17.9 °F 69% 30.49 in 10.0 mi WNW 8.1 mph - N/A   Clear
7:53 PM -10.8 °F -27.4 °F -18.4 °F 69% 30.50 in 10.0 mi WNW 8.1 mph - N/A   Clear
8:13 PM -11.2 °F -26.4 °F -18.4 °F 70% 30.50 in 10.0 mi West 6.9 mph - N/A   Clear
8:34 PM -11.6 °F -28.3 °F -18.8 °F 70% 30.50 in 10.0 mi West 8.1 mph - N/A   Clear
8:53 PM -12.1 °F -24.0 °F -19.3 °F 70% 30.49 in 10.0 mi WNW 4.6 mph - N/A   Clear
9:13 PM -12.6 °F -24.6 °F -19.3 °F 72% 30.49 in 10.0 mi WNW 4.6 mph - N/A   Clear
9:33 PM -14.1 °F -26.3 °F -20.2 °F 74% 30.48 in 10.0 mi West 4.6 mph - N/A   Clear
9:54 PM -13.9 °F -23.7 °F -19.5 °F 76% 30.48 in 10.0 mi West 3.5 mph - N/A   Clear
10:13 PM -14.4 °F -28.7 °F -20.2 °F 75% 30.48 in 10.0 mi West 5.8 mph - N/A   Clear
10:33 PM -14.6 °F -30.6 °F -20.2 °F 76% 30.48 in 10.0 mi WSW 6.9 mph - N/A   Clear
10:54 PM -15.0 °F -27.4 °F -20.6 °F 76% 30.47 in 10.0 mi West 4.6 mph - N/A   Clear
11:14 PM -15.3 °F -25.4 °F -20.9 °F 76% 30.46 in 10.0 mi West 3.5 mph - N/A   Clear
11:33 PM -15.7 °F -28.2 °F -21.1 °F 77% 30.47 in 10.0 mi West 4.6 mph - N/A   Clear
11:53 PM -16.1 °F -28.6 °F -21.3 °F 77% 30.46 in 10.0 mi WSW 4.6 mph - N/A   Clear